Location: Callanans Corners
(42.5326°N, 73.8846°W)
Time: 18:03:19
(UTC+00:00)

Cosmos 1844 Rocket - Pass Details

Date: 06 October 2022
Orbit: 823 x 845 km, 71.0° (Epoch: 05 December)

Event Time Altitude Azimuth Distance (km) Brightness Sun altitude
Rises 23:12:52 0° 343° (NNW) 3,410 6.1 -9.0°
Reaches altitude 10° 23:15:39 10° 354° (N) 2,474 5.2 -9.6°
Maximum altitude 23:20:34 29° 54° (NE) 1,501 3.6 -10.5°
Enters shadow 23:24:42 13° 109° (ESE) 2,233 4.3 -11.2°
